GFSFLT2_sfc_dewp_195.txt.gz
Dewpoint
25 25 25 25 24 23 22 22 20 23 26 31 43 48 49 46 50 51 52 56 57 60 62 64 65 67 67 68 68 68 68 68
24 22 23 23 25 19 24 23 21 22 26 28 46 51 52 49 49 49 53 55 56 59 61 63 64 65 67 68 67 67 68 68
29 27 25 23 22 23 22 22 21 21 26 48 51 53 53 53 55 55 54 51 57 59 61 63 63 65 66 68 67 67 67 68
27 26 28 26 27 24 23 29 26 25 29 51 53 54 54 54 56 57 59 59 56 58 61 63 64 65 66 67 67 67 68 68
26 26 30 31 33 29 28 28 34 26 28 50 53 54 55 54 56 57 59 60 61 58 61 64 65 66 66 68 68 67 68 67
26 30 33 33 32 30 28 28 29 28 30 44 52 53 55 54 56 57 58 58 60 62 61 63 66 67 67 67 69 69 67 67
34 33 33 35 37 34 30 35 33 35 33 50 52 52 54 54 53 53 54 56 58 59 62 64 65 67 67 67 69 69 69 69
33 31 29 37 42 44 45 46 46 46 47 49 48 49 50 54 52 52 53 53 55 59 60 62 65 65 67 67 68 69 69 68
23 29 31 29 41 42 44 47 48 45 48 46 46 47 48 49 53 51 51 53 55 58 60 61 63 66 66 67 69 69 69 69
28 31 26 41 44 41 40 42 44 44 45 48 49 49 50 51 51 51 52 53 54 56 61 62 63 63 65 69 68 69 70 70
30 29 37 40 42 40 40 39 45 46 47 47 48 47 45 55 51 49 51 54 55 56 61 64 64 64 65 67 68 68 69 69
36 32 31 40 41 45 45 39 46 47 46 46 47 43 42 49 49 51 51 52 55 56 58 60 62 65 64 64 67 68 68 69
35 33 40 42 44 45 38 40 45 46 47 47 47 48 50 51 52 52 53 53 54 55 57 58 62 63 64 64 64 66 70 70
35 33 28 46 43 37 44 46 47 48 48 48 49 50 51 52 53 53 52 53 55 56 55 56 60 62 63 63 65 65 65 67
36 35 44 48 47 48 49 49 48 48 48 49 49 50 51 52 53 53 53 54 56 56 56 57 59 61 62 63 64 65 65 65
39 39 42 45 47 49 49 48 47 48 49 50 50 51 51 52 53 53 54 54 55 56 56 56 58 59 62 63 64 64 64 65
42 43 45 45 46 46 46 47 48 49 50 51 51 51 52 53 54 54 55 55 56 56 56 57 58 60 60 62 63 63 63 63
42 46 47 47 47 49 49 49 50 51 51 53 53 53 54 54 55 56 56 56 57 57 58 58 58 59 61 62 62 61 61 62
45 48 49 49 49 50 51 51 52 52 53 53 54 54 55 55 56 56 57 57 57 58 58 59 59 59 60 62 62 62 62 62

GFSFLT2_sfc_dewp_198.txt.gz
Dewpoint
26 26 26 27 23 21 19 19 18 21 27 36 45 49 50 49 50 50 51 53 54 57 60 63 64 67 68 69 70 70 68 70
24 25 24 25 25 19 21 23 22 22 24 30 47 51 52 52 53 55 55 53 54 56 58 61 62 65 68 68 69 69 68 68
28 28 25 25 23 23 20 21 21 21 29 46 52 52 52 53 55 56 58 59 59 57 57 60 62 63 66 67 68 68 67 68
27 27 27 29 27 25 23 28 26 25 30 50 53 53 53 54 55 57 58 60 60 57 59 61 63 63 65 67 67 68 68 68
28 27 30 28 30 29 27 25 29 26 34 49 52 53 55 53 54 56 57 59 61 62 62 62 64 66 66 68 68 67 68 67
26 32 32 31 31 31 29 25 27 27 36 43 50 52 54 53 54 54 55 57 59 61 63 65 66 67 68 68 69 69 68 67
33 32 32 31 32 32 32 31 32 30 35 49 50 52 52 54 54 52 54 54 55 59 61 64 67 67 68 69 70 70 70 69
32 30 32 30 36 37 38 38 40 39 38 48 48 49 48 48 53 50 51 53 54 57 60 61 63 66 68 68 69 70 71 70
26 27 29 29 31 37 39 43 43 39 47 48 47 48 48 47 50 50 50 51 53 54 57 61 62 63 65 69 68 69 71 72
23 30 24 39 42 39 38 41 42 43 45 46 47 47 46 48 49 48 49 51 52 51 53 56 59 62 65 66 70 70 70 71
28 27 35 39 41 39 39 38 43 43 44 44 44 43 46 51 50 48 50 51 51 52 54 57 58 60 64 65 65 70 69 70
33 29 27 41 41 41 41 37 45 43 42 42 43 38 38 47 48 49 50 50 52 54 54 55 57 59 61 63 64 65 70 70
32 31 37 41 40 41 37 41 43 42 43 44 44 46 48 48 50 51 52 52 54 54 54 56 57 57 60 61 63 65 67 67
32 30 27 42 39 38 44 44 43 45 46 46 47 48 48 50 51 52 53 54 55 55 55 56 57 57 59 62 63 65 67 66
31 34 43 45 45 45 46 47 47 48 46 47 47 47 50 51 52 53 53 54 56 56 57 57 58 58 58 61 64 64 66 67
37 39 40 43 44 45 46 46 47 47 46 47 48 49 50 51 52 53 53 54 55 57 57 58 59 59 59 61 63 64 63 66
39 42 45 45 46 47 47 47 48 48 50 51 51 52 52 53 54 54 54 55 56 57 58 58 59 60 60 60 60 61 62 61
40 47 47 47 47 48 48 49 51 51 51 53 53 54 54 54 56 56 56 57 58 59 59 59 59 59 61 61 61 60 59 57
45 47 48 49 49 50 51 51 52 52 53 54 54 55 55 57 57 57 57 58 58 59 59 61 60 60 61 62 61 61 61 60

GFSFLT2_sfc_dewp_201.txt.gz
Dewpoint
25 25 25 24 23 20 17 17 19 26 34 41 45 48 49 50 52 51 51 51 51 53 57 60 62 66 67 69 71 71 69 71
23 24 24 23 26 18 18 27 23 24 27 36 45 48 50 51 53 55 57 57 55 54 55 58 61 63 67 69 70 70 69 69
26 25 24 23 21 21 18 20 21 21 37 46 50 49 49 52 54 55 57 59 59 58 56 57 59 61 65 68 68 69 69 69
26 25 26 26 26 24 23 28 28 26 36 47 50 50 51 52 54 55 58 59 60 61 59 60 61 61 62 67 67 68 69 70
26 25 27 26 25 25 25 24 28 23 39 48 51 52 52 52 53 55 56 57 60 61 64 65 64 65 65 66 67 67 68 68
28 40 35 32 28 29 27 25 25 27 43 47 49 51 52 53 53 53 55 56 57 60 62 65 67 69 69 68 69 68 67 67
30 30 30 30 29 28 29 30 29 28 35 48 50 50 50 51 53 52 52 52 54 57 61 63 64 68 71 71 72 71 70 69
30 28 28 27 28 26 31 29 32 32 33 47 48 49 48 48 51 50 50 50 51 52 55 60 63 64 65 69 71 72 73 72
27 25 23 26 30 28 31 35 39 36 46 48 47 47 47 46 49 49 49 51 52 52 52 54 56 61 63 65 67 72 72 73
25 28 25 34 39 37 35 34 38 39 42 44 45 45 45 45 49 49 49 50 51 50 52 53 54 55 60 63 67 68 71 71
26 25 32 37 39 37 37 35 38 40 42 43 43 43 41 48 47 47 48 48 49 50 53 55 55 57 58 60 63 66 67 70
32 29 26 42 41 40 39 31 45 43 43 42 42 37 35 46 45 46 47 49 52 53 54 54 56 56 57 57 60 62 66 69
31 31 38 42 40 39 31 43 44 42 43 43 42 44 47 47 48 49 51 52 54 54 55 56 57 56 57 59 60 63 65 68
32 32 34 43 39 35 44 43 43 44 44 46 47 47 47 47 49 50 51 52 53 54 55 55 57 57 58 61 64 66 65 66
33 39 46 44 42 42 43 45 46 47 46 47 46 46 47 48 50 51 52 52 54 56 58 59 58 59 59 63 65 66 66 65
35 39 40 42 42 43 45 46 46 46 46 47 47 48 49 51 51 53 53 53 54 57 57 59 61 61 61 62 64 64 65 65
38 44 45 45 45 46 46 47 47 48 48 49 50 50 52 53 54 53 53 56 57 58 58 59 60 61 61 61 62 60 62 61
44 47 47 46 47 48 48 48 49 49 50 51 52 52 52 53 55 57 58 59 60 60 60 60 62 61 63 64 63 60 59 57
45 46 46 47 47 48 48 48 48 48 49 50 52 53 55 55 57 57 58 59 60 60 60 61 62 61 62 66 65 64 64 60

GFSFLT2_sfc_dewp_204.txt.gz
Dewpoint
26 26 27 26 21 21 19 33 25 37 48 41 44 46 49 50 51 52 53 52 53 56 58 62 64 67 69 73 73 73 72 73
24 23 24 24 25 21 20 32 31 31 41 47 45 48 49 52 53 56 57 58 58 58 58 60 60 65 68 71 72 72 72 72
24 23 22 22 20 21 19 30 31 33 37 45 48 49 50 52 54 56 57 58 60 60 58 59 59 62 66 69 71 72 71 71
28 23 23 27 27 24 25 31 35 32 44 45 48 49 51 52 54 56 58 59 60 63 65 68 68 67 66 69 69 71 72 73
27 32 33 26 23 22 21 21 37 32 47 49 50 50 51 52 54 55 56 58 60 61 64 67 69 71 72 71 70 69 71 71
27 37 36 36 35 24 26 24 27 37 44 47 49 51 52 52 53 53 55 57 57 60 62 64 67 70 71 71 71 70 69 69
30 33 39 36 35 33 29 28 28 29 40 50 55 50 49 52 52 51 51 51 53 55 61 65 66 68 69 70 73 73 71 72
28 26 31 31 27 27 28 26 29 27 44 48 49 50 49 48 51 51 50 51 52 53 56 58 61 64 66 68 69 71 72 71
28 24 22 23 28 26 27 27 33 36 47 48 48 47 46 45 46 51 49 50 51 52 55 58 59 62 62 65 68 70 71 73
28 28 24 35 37 35 34 33 36 37 40 44 45 44 44 44 48 49 49 49 52 50 53 55 54 57 62 62 66 68 70 70
29 25 27 37 38 36 33 37 39 36 41 42 42 41 45 46 45 46 47 50 51 50 55 60 60 60 61 62 63 65 66 69
32 29 28 41 39 39 36 35 43 43 43 42 43 40 40 46 45 46 47 49 53 55 56 57 60 61 62 60 61 61 64 67
30 30 40 42 40 39 34 44 45 43 43 43 42 44 48 46 48 49 50 51 55 56 56 58 60 60 61 62 62 63 65 67
34 33 38 43 40 40 45 44 43 44 45 45 46 46 46 47 49 50 52 54 56 57 57 59 60 60 60 62 64 66 66 66
38 44 48 45 43 43 43 44 46 46 45 45 45 46 46 49 53 53 54 55 56 56 58 60 61 61 61 63 64 64 65 65
35 39 42 43 43 45 46 45 46 45 45 46 47 49 49 50 52 53 54 55 57 59 59 60 62 62 62 63 64 64 63 64
38 45 45 45 46 46 45 46 46 46 48 49 48 48 49 51 54 54 56 57 58 59 60 60 62 62 62 63 64 63 63 62
45 48 48 47 46 48 47 47 48 47 47 48 49 50 51 53 55 57 57 58 59 61 61 61 61 63 63 65 65 64 61 60
46 46 45 45 47 49 48 46 47 46 48 49 50 51 53 55 57 57 59 60 61 61 62 62 63 63 64 65 65 65 64 64